Weather History for Sacramento / Mc Clellan, CA

Change the Weather History Date:

Tuesday, April 23, 2013

  Actual Average (KMHR) Record (KMHR)
Temperature  
Mean Temperature 68 °F -  
Max Temperature 82 °F 68 °F 84 °F (2002)
Min Temperature 55 °F 44 °F 37 °F (2014)
Cooling Degree Days 4    
Growing Degree Days 18 (Base 50)    
Moisture  
Dew Point 27 °F    
Average Humidity 23    
Maximum Humidity 55    
Minimum Humidity 10    
Precipitation  
Precipitation 0.00 in - - ()
Sea Level Pressure  
Sea Level Pressure 29.88 in    
Wind  
Wind Speed 11 mph (NW)    
Max Wind Speed 21 mph    
Max Gust Speed 28 mph    
Visibility 10 miles    
Events      
Averages and records for this station are not official NWS values.
T = Trace of Precipitation, MM = Missing Value Source: NWS Daily Summary

Daily Weather History Graph

Daily Weather History Graph

Search for Another Location

Airport:

Trip Planner

Search our weather history database for the weather conditions in past years. The results will help you decide how hot, cold, wet, or windy it might be!

Date:

Astronomy

Apr. 23, 2013 Rise Set
Actual Time 6:17 AM PDT 7:50 PM PDT
Civil Twilight 5:49 AM PDT 8:18 PM PDT
Nautical Twilight 5:16 AM PDT 8:52 PM PDT
Astronomical Twilight 4:40 AM PDT 9:28 PM PDT
Moon 5:52 PM PDT (4/23) 4:47 AM PDT (4/23)
Length of Visible Light 14h 28m
Length of Day
13h 32m
Waxing Gibbous, 94% of the Moon is Illuminated
Apr 23
Waxing Gibbous
Apr 25
Full
May 2
Last Quarter
May 9
New
May 17
First Quarter

Hourly Weather History & Observations

Time (PDT) Temp. Dew Point Humidity Pressure Visibility Wind Dir Wind Speed Gust Speed Precip Events Conditions
12:05 AM 62.6 °F 35.6 °F 37% 29.87 in 10.0 mi NNW 11.5 mph - N/A   Clear
12:25 AM 62.6 °F 35.6 °F 37% 29.88 in 10.0 mi NNW 10.4 mph - N/A   Clear
12:45 AM 62.6 °F 32.0 °F 32% 29.88 in 10.0 mi NNW 9.2 mph - N/A   Clear
1:05 AM 64.4 °F 30.2 °F 28% 29.88 in 10.0 mi NNW 13.8 mph 18.4 mph N/A   Clear
1:25 AM 64.4 °F 28.4 °F 26% 29.89 in 10.0 mi NW 13.8 mph 19.6 mph N/A   Clear
1:45 AM 64.4 °F 28.4 °F 26% 29.89 in 10.0 mi NW 12.7 mph 18.4 mph N/A   Clear
2:05 AM 62.6 °F 28.4 °F 27% 29.89 in 10.0 mi NW 10.4 mph - N/A   Clear
2:25 AM 62.6 °F 28.4 °F 27% 29.89 in 10.0 mi NW 15.0 mph - N/A   Clear
2:45 AM 62.6 °F 28.4 °F 27% 29.89 in 10.0 mi NW 12.7 mph - N/A   Clear
3:05 AM 62.6 °F 26.6 °F 26% 29.89 in 10.0 mi NW 11.5 mph 18.4 mph N/A   Clear
3:25 AM 62.6 °F 26.6 °F 26% 29.89 in 10.0 mi NNW 13.8 mph 21.9 mph N/A   Clear
3:45 AM 60.8 °F 26.6 °F 27% 29.90 in 10.0 mi NNW 16.1 mph 20.7 mph N/A   Clear
4:05 AM 59.0 °F 26.6 °F 29% 29.89 in 10.0 mi NNW 12.7 mph - N/A   Clear
4:25 AM 59.0 °F 26.6 °F 29% 29.90 in 10.0 mi NNW 10.4 mph - N/A   Clear
4:45 AM 57.2 °F 26.6 °F 31% 29.90 in 10.0 mi NNW 8.1 mph - N/A   Clear
5:05 AM 55.4 °F 26.6 °F 33% 29.90 in 10.0 mi NNW 9.2 mph - N/A   Clear
5:25 AM 55.4 °F 26.6 °F 33% 29.91 in 10.0 mi NNW 10.4 mph - N/A   Clear
5:45 AM 55.4 °F 26.6 °F 33% 29.91 in 10.0 mi NNW 11.5 mph - N/A   Clear
6:05 AM 55.4 °F 24.8 °F 31% 29.90 in 10.0 mi NNW 12.7 mph - N/A   Clear
6:25 AM 55.4 °F 24.8 °F 31% 29.91 in 10.0 mi NNW 13.8 mph 19.6 mph N/A   Clear
6:45 AM 57.2 °F 24.8 °F 29% 29.91 in 10.0 mi NNW 15.0 mph - N/A   Clear
7:05 AM 57.2 °F 24.8 °F 29% 29.92 in 10.0 mi NNW 17.3 mph 21.9 mph N/A   Clear
7:25 AM 59.0 °F 23.0 °F 25% 29.92 in 6.0 mi NNW 18.4 mph 25.3 mph N/A   Haze
7:45 AM 60.8 °F 23.0 °F 23% 29.92 in 10.0 mi NNW 17.3 mph 24.2 mph N/A   Clear
8:05 AM 62.6 °F 24.8 °F 24% 29.93 in 10.0 mi North 16.1 mph 21.9 mph N/A   Clear
8:25 AM 64.4 °F 24.8 °F 22% 29.93 in 9.0 mi North 12.7 mph 21.9 mph N/A   Clear
8:45 AM 66.2 °F 24.8 °F 21% 29.93 in 10.0 mi NNW 13.8 mph 20.7 mph N/A   Clear
9:05 AM 66.2 °F 23.0 °F 19% 29.93 in 10.0 mi NNW 18.4 mph 26.5 mph N/A   Clear
9:25 AM 68.0 °F 23.0 °F 18% 29.93 in 9.0 mi NNW 18.4 mph 24.2 mph N/A   Clear
9:45 AM 69.8 °F 23.0 °F 17% 29.93 in 8.0 mi NW 18.4 mph 26.5 mph N/A   Clear
10:05 AM 71.6 °F 23.0 °F 16% 29.94 in 9.0 mi NNW 15.0 mph 25.3 mph N/A   Clear
10:25 AM 71.6 °F 23.0 °F 16% 29.93 in 9.0 mi NNW 20.7 mph 27.6 mph N/A   Clear
10:45 AM 73.4 °F 24.8 °F 16% 29.94 in 9.0 mi North 19.6 mph 25.3 mph N/A   Clear
11:05 AM 75.2 °F 23.0 °F 14% 29.94 in 9.0 mi North 15.0 mph 26.5 mph N/A   Clear
11:25 AM 75.2 °F 23.0 °F 14% 29.93 in 9.0 mi NNW 17.3 mph 23.0 mph N/A   Clear
11:45 AM 75.2 °F 23.0 °F 14% 29.93 in 9.0 mi NNW 15.0 mph 21.9 mph N/A   Clear
12:05 PM 77.0 °F 24.8 °F 14% 29.93 in 9.0 mi NNW 12.7 mph 21.9 mph N/A   Clear
12:25 PM 77.0 °F 24.8 °F 14% 29.92 in 10.0 mi NNW 11.5 mph 18.4 mph N/A   Clear
12:45 PM 77.0 °F 24.8 °F 14% 29.91 in 10.0 mi NNW 8.1 mph - N/A   Clear
1:05 PM 80.6 °F 24.8 °F 13% 29.90 in 9.0 mi NNW 8.1 mph - N/A   Clear
1:25 PM 78.8 °F 24.8 °F 14% 29.90 in 10.0 mi WNW 10.4 mph - N/A   Clear
1:45 PM 80.6 °F 24.8 °F 13% 29.90 in 9.0 mi NW 10.4 mph - N/A   Clear
2:05 PM 80.6 °F 24.8 °F 13% 29.90 in 10.0 mi WNW 10.4 mph - N/A   Clear
2:25 PM 80.6 °F 23.0 °F 12% 29.89 in 10.0 mi West 8.1 mph - N/A   Clear
2:45 PM 80.6 °F 23.0 °F 12% 29.89 in 10.0 mi NNW 5.8 mph - N/A   Clear
3:05 PM 80.6 °F 23.0 °F 12% 29.88 in 10.0 mi NNW 4.6 mph - N/A   Clear
3:25 PM 82.4 °F 23.0 °F 11% 29.87 in 9.0 mi WNW 6.9 mph - N/A   Clear
3:45 PM 82.4 °F 24.8 °F 12% 29.87 in 10.0 mi NW 9.2 mph - N/A   Clear
4:05 PM 82.4 °F 19.4 °F 10% 29.86 in 9.0 mi WSW 5.8 mph - N/A   Clear
4:25 PM 82.4 °F 23.0 °F 11% 29.85 in 9.0 mi North 5.8 mph - N/A   Clear
4:45 PM 82.4 °F 21.2 °F 10% 29.85 in 10.0 mi NNW 8.1 mph - N/A   Clear
5:05 PM 82.4 °F 19.4 °F 10% 29.84 in 9.0 mi South 3.5 mph - N/A   Clear
5:25 PM 82.4 °F 19.4 °F 10% 29.84 in 9.0 mi NNW 4.6 mph - N/A   Clear
5:45 PM 82.4 °F 21.2 °F 10% 29.84 in 9.0 mi NNW 4.6 mph - N/A   Clear
6:05 PM 82.4 °F 19.4 °F 10% 29.84 in 10.0 mi Calm Calm - N/A   Clear
6:25 PM 80.6 °F 23.0 °F 12% 29.83 in 10.0 mi Calm Calm - N/A   Clear
6:45 PM 80.6 °F 24.8 °F 13% 29.83 in 9.0 mi North 3.5 mph - N/A   Clear
7:05 PM 80.6 °F 24.8 °F 13% 29.83 in 10.0 mi Calm Calm - N/A   Clear
7:25 PM 78.8 °F 26.6 °F 15% 29.82 in 10.0 mi Calm Calm - N/A   Clear
7:45 PM 75.2 °F 32.0 °F 21% 29.82 in 10.0 mi Calm Calm - N/A   Clear
8:05 PM 73.4 °F 32.0 °F 22% 29.83 in 9.0 mi Calm Calm - N/A   Clear
8:25 PM 71.6 °F 33.8 °F 25% 29.83 in 9.0 mi Calm Calm - N/A   Clear
8:45 PM 71.6 °F 32.0 °F 23% 29.84 in 8.0 mi SW 8.1 mph - N/A   Clear
9:05 PM 68.0 °F 35.6 °F 30% 29.84 in 9.0 mi SSW 6.9 mph - N/A   Clear
9:25 PM 68.0 °F 37.4 °F 33% 29.85 in 8.0 mi SSW 5.8 mph - N/A   Clear
9:45 PM 66.2 °F 39.2 °F 37% 29.85 in 9.0 mi SSW 5.8 mph - N/A   Clear
10:05 PM 64.4 °F 39.2 °F 40% 29.85 in 9.0 mi SSW 5.8 mph - N/A   Clear
10:25 PM 64.4 °F 41.0 °F 42% 29.85 in 9.0 mi South 4.6 mph - N/A   Clear
10:45 PM 60.8 °F 42.8 °F 52% 29.85 in 10.0 mi South 6.9 mph - N/A   Clear
11:05 PM 59.0 °F 42.8 °F 55% 29.85 in 10.0 mi SE 6.9 mph - N/A   Clear
11:25 PM 59.0 °F 42.8 °F 55% 29.85 in 10.0 mi SE 8.1 mph - N/A   Clear
11:45 PM 57.2 °F 41.0 °F 55% 29.86 in 10.0 mi SE 6.9 mph - N/A   Clear